SCP
0 0 0 0 0 0 0 0 0 0 0 0 0 0 0 0 0 0 1 1 1 2 3 2 2 1 1 1 1 2 2 2 2 2 1 1 1 1 1 0 0 0 0 0 0 0 0 0 0
0 0 0 0 0 0 0 0 0 0 0 0 0 0 0 0 0 0 1 1 2 2 3 2 2 1 1 1 1 2 2 2 2 2 1 1 1 1 1 0 0 0 0 0 0 0 0 0 0
0 0 0 0 0 0 0 0 0 0 0 0 0 0 0 0 0 0 1 2 2 3 2 2 2 1 1 1 1 2 2 2 2 2 1 1 1 1 1 1 0 0 0 0 0 0 0 0 0
0 0 0 0 0 0 0 0 0 0 0 0 0 0 0 0 0 1 1 2 2 2 2 2 2 1 1 1 1 2 2 2 2 2 1 1 1 1 1 1 0 0 0 0 0 0 0 0 0
0 0 0 0 0 0 0 0 0 0 0 0 0 0 0 1 1 1 1 2 2 2 1 1 1 1 1 1 1 2 2 2 2 2 1 1 1 1 1 1 1 1 1 0 0 0 0 0 0
0 0 0 0 0 0 0 0 0 0 0 0 0 0 1 1 1 1 2 2 2 1 1 1 1 1 1 1 1 2 2 2 2 2 1 1 1 1 1 1 1 1 1 0 0 0 0 0 0
0 0 0 0 0 0 0 0 0 0 0 0 0 0 1 1 1 2 2 2 2 1 1 1 1 1 1 1 1 2 2 2 2 2 1 1 1 1 1 1 1 1 0 0 0 0 0 0 0
0 0 0 0 0 0 0 0 0 0 0 0 0 0 1 1 2 2 3 3 2 1 1 1 0 0 0 1 1 1 2 2 2 1 1 1 1 1 1 1 1 1 0 0 0 0 0 0 0
0 0 0 0 0 0 0 0 0 0 0 0 0 1 1 1 2 3 3 3 2 1 1 1 0 0 0 1 1 1 1 1 1 1 1 1 1 1 0 1 1 1 0 0 0 1 0 0 0
0 0 0 0 0 0 0 0 0 0 0 0 0 1 1 2 2 3 4 4 3 2 1 0 0 0 1 1 1 1 1 1 1 1 1 1 1 0 0 1 1 1 0 0 1 1 0 0 0
0 0 0 0 0 0 0 0 0 0 0 0 0 1 1 2 3 3 3 3 3 2 1 1 0 1 1 1 1 1 1 1 1 1 1 1 1 1 0 1 1 1 1 1 1 0 0 1 1
0 0 0 0 0 0 0 0 0 0 0 0 0 1 2 2 2 2 3 2 2 2 1 1 1 1 1 1 1 1 1 1 1 1 1 1 1 1 1 1 1 1 1 1 1 0 1 1 1
0 0 0 0 0 0 0 0 0 0 0 0 0 1 1 2 2 2 2 2 2 2 1 1 1 1 1 1 1 1 1 1 1 1 1 1 1 1 1 1 1 1 1 1 1 1 1 1 1
0 0 0 0 0 0 0 0 0 0 0 0 0 1 1 1 1 2 2 2 2 2 2 2 2 2 2 2 1 1 1 1 1 1 1 1 1 1 1 1 1 1 1 1 1 1 1 1 1
0 0 0 0 0 0 0 0 0 1 1 1 1 1 1 1 1 1 2 2 2 2 2 2 2 3 3 2 2 2 2 1 1 1 1 2 2 2 3 3 2 2 2 1 1 1 1 1 1
0 0 0 0 0 0 0 0 1 1 2 2 1 2 2 2 2 2 2 2 2 2 2 2 2 2 3 3 3 2 2 2 2 2 2 2 2 3 3 4 3 3 2 2 2 2 2 2 2
0 0 0 0 0 0 0 1 1 2 3 3 2 3 3 3 3 3 2 2 2 2 2 2 2 2 2 3 3 2 2 2 2 2 2 2 2 3 3 4 3 3 3 3 2 2 2 3 3
0 0 0 0 0 0 1 1 2 3 3 3 3 4 4 4 4 4 3 2 2 2 2 3 3 3 3 3 3 3 2 3 3 3 3 3 3 3 3 3 3 3 3 3 3 3 3 3 3
0 0 0 0 0 1 1 2 2 3 3 4 4 5 5 5 5 4 3 3 3 3 3 3 3 3 4 3 3 4 4 3 4 4 4 4 4 3 3 4 4 4 4 4 4 3 3 2 2
0 0 0 0 1 1 1 1 2 2 3 4 5 5 5 5 5 5 4 4 3 3 4 4 4 4 4 4 4 5 5 4 4 5 6 6 5 5 4 4 5 5 5 4 3 3 2 2 1
0 0 0 0 1 1 1 1 1 2 2 3 4 5 5 5 5 5 4 4 4 4 4 4 4 4 4 4 5 6 6 5 5 6 7 7 6 5 5 5 5 5 4 3 2 2 2 2 1
0 0 0 0 0 1 1 1 1 1 2 3 4 5 5 4 4 4 4 4 4 4 5 5 5 5 4 5 5 6 6 6 7 7 7 6 5 4 4 4 4 4 4 2 2 2 2 2 1
0 0 0 0 0 0 0 1 1 1 2 3 4 4 4 4 4 5 5 5 5 5 5 6 7 7 6 5 5 6 6 7 7 7 5 4 3 3 3 3 3 3 3 2 1 1 1 1 1
0 0 0 0 0 0 0 1 1 1 2 2 3 3 4 4 4 5 5 5 5 5 5 6 7 8 8 6 5 5 6 6 5 4 4 3 2 2 2 1 1 1 1 1 1 1 1 1 1
0 0 0 0 0 0 1 1 1 1 2 2 2 2 2 3 4 4 5 5 7 7 6 5 6 7 7 5 4 4 4 3 3 2 2 2 1 1 1 1 1 0 0 0 0 0 0 0 0
0 0 0 0 0 0 1 1 1 1 1 1 1 1 1 1 1 2 3 5 8 8 6 4 3 3 3 3 2 2 2 2 2 1 1 1 1 1 1 0 0 0 0 0 0 0 0 0 0
0 0 0 0 0 0 1 1 1 1 1 1 1 0 0 0 0 0 1 2 4 4 2 1 1 0 1 1 1 1 1 1 1 1 1 1 0 0 0 0 0 0 0 0 0 0 0 0 0
0 0 0 0 0 0 1 1 1 1 1 1 0 0 0 0 0 0 0 0 0 0 0 0 0 0 0 0 0 0 0 0 0 0 0 0 0 0 0 0 0 0 0 0 0 0 0 0 0
0 0 0 0 0 0 1 1 1 1 1 1 0 0 0 0 0 0 0 0 0 0 0 0 0 0 0 0 0 0 0 0 0 0 0 0 0 0 0 0 0 0 0 0 0 0 0 0 0
0 0 0 0 0 0 1 1 1 1 1 1 0 0 0 0 0 0 0 0 0 0 0 0 0 0 0 0 0 0 0 0 0 0 0 0 0 0 0 0 0 0 0 0 0 0 0 0 0
Wind_Speed
10 7 6 6 9 8 4 5 3 5 5 4 2 2 4 5 5 6 6 14 16 18 20 19 13 13 15 17 17 17 18 18 17 16 15 14 13 13 12 12 12 11 12 12 12 12 11 11 10
7 5 7 7 10 8 5 4 4 7 6 3 0 2 3 1 5 6 8 15 18 18 19 19 16 14 15 16 17 17 18 18 17 16 15 14 13 12 12 12 12 11 11 11 11 11 10 10 9
6 7 7 8 11 9 5 5 4 4 3 3 2 1 2 4 5 6 10 18 18 18 18 19 16 14 15 17 17 17 18 17 17 16 15 14 13 12 12 12 11 11 10 10 10 10 9 8 8
6 7 7 11 16 11 4 2 3 4 2 3 4 1 4 5 3 8 16 19 19 18 18 19 15 15 15 16 17 17 17 17 16 15 15 13 13 12 11 11 11 10 10 10 9 9 8 7 6
8 9 13 17 19 12 7 4 6 6 4 4 5 3 5 6 7 14 18 18 18 18 17 20 14 14 15 15 16 16 16 15 15 14 14 13 12 11 11 11 10 10 10 9 9 8 6 6 5
9 10 16 19 19 15 10 7 8 8 5 4 4 3 6 8 11 16 18 17 17 17 17 19 16 15 15 15 14 14 14 14 13 13 13 12 11 10 10 10 9 9 9 9 8 7 6 5 4
13 14 20 22 18 16 11 7 10 8 7 4 4 2 7 9 12 16 16 16 16 16 17 17 18 16 15 13 13 13 13 13 13 12 12 12 11 10 10 9 8 8 8 8 7 6 5 4 3
10 13 22 22 20 18 10 9 9 9 7 3 3 3 4 12 14 15 15 15 16 15 16 16 17 17 16 15 14 14 13 12 12 12 12 12 11 10 9 10 8 7 7 7 7 6 5 4 3
8 14 20 20 18 17 10 11 10 7 8 6 3 3 5 16 17 17 15 15 15 15 14 15 16 15 15 15 15 14 13 11 12 12 12 11 11 11 10 8 9 6 6 6 5 5 4 4 6
10 16 21 14 12 13 10 12 11 9 12 10 6 4 8 16 18 19 18 18 18 17 16 15 16 16 15 12 13 11 12 12 12 11 12 10 6 5 5 12 7 5 5 5 5 4 7 10 7
10 15 13 10 10 12 13 13 13 15 15 13 8 7 12 16 18 18 19 18 18 18 16 16 15 14 13 10 10 8 7 9 10 10 10 7 6 5 5 6 8 8 9 8 8 9 7 6 3
10 11 11 11 11 13 15 15 16 17 18 12 8 6 13 17 18 19 19 18 17 18 17 15 15 13 13 11 9 8 7 7 7 8 9 7 5 5 5 4 5 5 5 4 5 4 4 4 5
13 12 11 13 14 14 14 16 16 17 17 14 11 10 14 17 17 17 17 17 17 17 17 16 14 13 11 9 8 8 7 7 7 7 8 7 6 6 5 4 3 5 3 4 5 5 4 5 6
7 8 11 13 14 13 15 16 17 16 15 14 13 13 14 15 16 16 16 16 16 16 15 14 14 13 11 9 8 7 7 6 7 7 8 9 6 5 5 5 4 5 4 4 4 4 4 5 4
8 10 12 13 13 12 12 16 17 16 13 13 12 12 12 13 14 16 16 16 15 15 14 13 13 12 11 11 10 7 7 7 6 6 7 8 7 6 5 5 5 5 4 4 4 4 4 4 4
9 11 11 8 9 10 12 12 8 8 12 12 10 9 10 11 13 13 14 13 13 13 14 13 11 12 11 9 8 7 6 6 5 5 6 8 7 7 6 5 5 4 4 4 3 4 4 4 4
10 10 7 7 7 7 12 6 3 1 8 9 9 9 9 10 10 11 11 11 11 12 12 13 12 12 11 10 8 7 5 5 5 5 5 6 7 7 6 5 3 3 3 3 4 3 4 3 3
7 7 6 6 6 6 8 3 3 2 5 8 7 8 8 8 8 8 8 9 9 10 10 11 12 11 10 9 7 6 6 5 4 3 3 3 4 5 5 4 3 3 3 3 3 3 2 2 2
3 5 5 3 2 3 5 3 5 5 3 5 5 6 6 6 6 7 7 7 8 8 9 10 10 10 9 8 8 8 7 5 4 3 3 3 3 4 4 3 3 3 2 2 3 2 3 2 2
9 9 7 5 4 2 5 6 7 7 7 6 4 5 6 7 7 6 5 5 6 6 7 8 9 10 10 8 7 5 5 3 3 3 2 2 1 1 2 2 2 1 1 1 1 1 1 1 1
10 10 7 4 4 6 7 7 7 8 9 9 8 8 8 8 7 7 6 5 4 4 4 4 6 8 9 8 6 5 4 3 3 3 2 3 3 3 2 2 1 2 1 1 1 2 3 2 2
10 9 8 7 9 9 10 8 8 8 9 9 9 10 11 10 9 8 8 7 6 4 3 2 2 4 6 8 8 8 6 5 4 3 3 4 5 4 4 4 4 3 2 1 1 1 2 2 2
8 4 8 9 9 7 10 7 10 8 9 9 10 11 11 11 11 11 10 10 9 7 6 5 4 3 2 4 6 6 5 4 4 5 5 5 6 6 6 5 5 4 4 4 3 3 2 1 1
8 6 7 8 10 11 9 8 8 5 8 9 9 11 11 11 12 11 11 11 11 10 9 8 8 8 6 5 4 4 6 7 7 6 5 5 6 7 7 7 6 6 5 5 6 6 7 5 5
11 10 9 11 11 7 6 4 8 9 11 12 11 10 10 11 11 12 12 12 12 12 12 11 12 12 12 11 10 8 8 8 9 7 6 7 6 6 8 7 8 7 7 7 7 8 7 7 7
13 14 9 8 10 9 8 6 8 10 12 12 12 11 11 11 11 12 12 12 12 13 13 13 14 14 13 13 13 12 12 9 8 10 9 9 8 8 9 9 10 10 9 8 8 7 7 7 7
11 12 8 6 4 6 8 9 8 9 11 12 12 12 11 11 11 12 12 12 12 13 13 14 14 15 15 15 15 14 13 13 12 12 11 9 9 8 11 11 11 10 10 9 8 7 7 6 6
7 6 6 9 8 7 10 9 9 13 12 12 12 12 11 11 11 11 11 12 12 13 13 15 15 16 15 15 14 13 14 14 13 13 13 12 11 10 10 10 10 10 9 9 8 7 7 6 6
7 7 7 7 6 5 8 6 6 13 14 14 13 12 11 11 11 11 11 12 13 13 14 14 15 15 15 15 15 15 14 13 13 12 12 11 10 10 10 10 10 10 9 8 7 7 6 6 5
2 2 5 6 5 6 1 8 6 11 14 15 14 13 12 12 11 11 12 12 13 13 14 14 13 14 14 14 14 14 13 13 13 12 11 10 10 9 9 9 9 9 8 8 7 7 6 6 6
Wind_Direction
262 253 253 255 249 236 209 110 76 61 52 27 341 304 312 326 338 32 100 151 148 147 142 146 143 145 145 144 144 144 144 144 143 143 142 140 137 133 130 130 129 128 125 122 121 120 118 118 119
283 256 248 250 258 235 178 133 90 47 35 3 53 252 273 8 49 90 133 146 150 146 148 154 142 145 144 143 143 144 145 144 143 142 141 139 136 134 133 134 133 130 127 125 124 122 120 120 120
255 244 261 256 247 247 178 136 59 34 49 4 331 285 334 41 95 126 141 151 150 147 150 142 147 146 145 144 144 144 145 144 143 142 141 139 137 136 136 137 135 131 129 127 125 123 121 120 118
230 223 237 247 242 235 240 148 348 326 8 5 325 265 95 56 101 135 145 155 151 150 150 143 153 149 147 147 146 146 145 145 145 144 142 139 139 138 139 138 135 132 130 128 126 125 124 121 117
235 241 238 239 241 234 233 267 294 298 322 337 323 288 107 88 112 135 150 155 152 152 150 148 153 150 150 149 148 147 147 146 144 143 141 140 140 140 140 138 136 133 130 128 126 125 122 119 116
223 233 239 238 235 229 228 248 271 278 294 322 323 297 94 117 135 146 152 157 154 152 149 146 153 156 155 153 150 148 147 145 143 142 142 142 142 141 140 139 136 133 131 129 128 127 124 116 111
238 232 241 243 242 230 223 241 259 267 277 334 333 287 118 135 141 150 153 158 154 155 150 153 161 162 161 155 152 149 147 146 144 143 143 145 145 144 144 141 138 136 134 134 134 134 131 124 115
253 247 244 243 243 239 222 229 245 265 284 347 308 291 130 141 150 152 155 157 157 159 154 158 165 166 168 166 160 155 152 150 148 148 150 150 149 153 154 163 144 145 142 141 141 142 143 144 143
238 240 241 238 240 243 228 235 236 252 264 264 264 335 70 141 154 156 156 160 162 164 161 165 167 169 174 169 160 164 160 155 156 160 158 169 181 172 177 156 141 156 153 150 149 153 160 186 182
224 238 243 252 260 254 232 236 244 246 248 244 216 148 138 155 163 166 166 169 169 170 172 171 173 172 177 167 162 174 177 169 187 174 174 195 185 187 180 123 157 169 170 171 167 174 198 226 199
229 246 256 252 257 263 255 245 249 253 252 248 245 190 167 173 176 178 176 176 173 172 178 177 175 177 176 170 170 178 182 172 192 181 184 194 184 186 192 171 173 187 194 200 172 201 217 222 230
236 246 256 256 252 250 252 254 251 246 251 259 264 221 185 188 187 185 181 178 175 174 180 180 176 179 185 178 175 180 184 177 187 177 195 187 199 201 197 209 198 194 202 208 221 227 216 239 230
235 243 243 246 248 250 255 252 253 252 251 255 253 223 203 199 194 189 183 178 177 177 180 181 183 178 185 184 188 188 190 184 183 180 193 201 200 205 196 208 223 238 221 204 229 239 222 236 229
248 252 251 247 244 240 243 246 241 246 245 243 235 220 207 202 195 184 180 179 180 179 181 179 186 181 186 190 198 193 193 191 192 190 192 202 211 203 207 210 213 234 236 242 239 239 235 242 244
255 256 248 235 230 230 235 240 234 239 236 229 219 211 206 198 190 184 180 181 180 179 181 182 187 185 190 198 201 199 202 194 201 193 194 202 213 202 214 223 216 223 224 227 239 232 238 239 236
228 235 235 199 209 209 224 230 209 224 216 214 208 197 192 186 185 181 178 181 179 179 180 184 188 188 191 203 204 207 208 199 203 198 195 202 214 209 218 225 221 215 223 225 232 242 234 228 235
213 224 214 167 184 191 220 226 95 207 201 195 188 179 174 168 176 172 174 177 179 180 180 185 193 191 191 197 201 211 203 204 204 203 204 199 211 215 222 231 225 219 236 240 241 233 247 239 240
199 209 196 180 150 201 203 192 78 83 184 177 168 163 158 157 157 156 166 169 172 174 180 186 192 193 191 193 195 204 204 200 205 200 200 200 212 218 225 229 221 228 233 240 248 240 250 253 236
260 246 217 177 148 209 174 138 77 70 115 133 138 137 137 125 123 137 150 158 163 169 177 185 192 189 190 192 194 194 195 192 185 180 172 184 200 204 219 225 203 219 230 235 238 237 224 227 220
236 235 220 183 148 220 146 115 82 68 69 65 83 101 101 101 102 108 122 138 152 159 173 182 191 190 193 195 199 197 184 179 167 152 126 127 154 160 194 212 187 176 188 177 235 257 242 203 233
228 238 231 206 173 191 175 147 120 89 74 66 63 67 74 79 84 88 91 98 119 137 160 178 190 190 193 193 186 169 161 157 159 147 122 85 82 79 77 72 81 97 119 153 198 220 222 213 205
227 223 240 238 232 188 211 181 133 114 90 73 65 63 62 64 68 66 69 69 65 70 91 115 155 180 185 185 184 178 178 176 165 136 114 92 77 73 73 83 86 87 90 112 161 202 218 200 192
243 230 230 232 239 223 205 216 131 140 106 81 68 64 62 61 63 59 56 57 52 48 53 63 72 75 116 167 173 170 166 148 125 115 110 94 81 71 64 73 83 84 80 79 79 71 58 68 94
233 219 218 230 227 218 201 218 132 126 117 103 82 68 61 59 60 58 54 52 48 45 47 55 62 58 60 82 108 138 135 124 117 113 113 99 82 70 65 67 69 70 69 68 68 69 67 63 65
214 216 200 199 207 192 165 188 94 89 99 104 94 80 69 62 58 54 50 49 47 44 44 51 58 55 52 61 63 70 85 94 100 102 96 91 81 72 66 64 64 65 65 66 67 67 63 62 62
205 223 233 213 197 156 168 133 102 100 99 99 95 88 77 68 62 57 53 52 51 49 49 54 58 58 56 60 61 61 65 70 73 76 78 76 73 69 69 69 68 64 62 63 63 67 64 59 59
200 222 252 274 217 169 134 117 120 125 118 111 104 93 82 74 69 64 60 58 58 57 55 59 64 64 61 62 65 65 66 71 74 74 72 72 75 77 72 70 67 63 60 58 57 58 54 50 45
255 221 216 238 215 191 159 164 158 160 144 128 114 102 92 83 77 71 67 66 65 65 66 65 67 69 68 69 70 74 73 74 76 77 76 74 73 73 73 72 70 67 61 57 55 59 52 53 49
199 205 232 243 267 235 175 132 124 156 148 132 118 109 101 94 87 80 74 72 71 70 69 70 71 73 72 73 74 76 76 76 78 78 79 78 76 74 74 72 70 68 64 59 56 53 47 45 41
229 245 241 243 217 262 219 102 93 135 130 125 119 113 107 100 93 89 84 80 76 74 73 73 74 76 78 79 80 80 81 81 81 81 80 80 78 76 77 77 73 69 66 59 55 50 41 35 30